GW0019 Weather Reports


time (UTC)temp
F
wind
direction
speed
knots
gust
knots
rain 1hr
in
rain 24hr
in
rain mn
in
humidity
%
barometer
mb
20260506235432 58 25 6.1 7.0 0.00 0.01 0.01 72 1019.8
20260506234927 58 25 6.1 7.0 0.00 0.01 0.01 72 1019.8
20260506234426 58 25 6.1 7.0 0.00 0.01 0.01 72 1019.6
20260506233923 59 11 2.6 3.5 0.00 0.01 0.01 72 1019.7
20260506233419 59 11 2.6 3.5 0.00 0.01 0.01 72 1019.7
20260506232916 59 11 2.6 3.5 0.00 0.01 0.01 72 1019.4
20260506232412 58 46 3.5 5.2 0.00 0.01 0.01 72 1019.7
20260506231908 58 23 3.5 6.1 0.00 0.01 0.01 72 1019.9
20260506231406 59 12 4.3 4.3 0.00 0.01 0.01 73 1019.6
20260506230903 58 5 7.0 8.7 0.00 0.01 0.01 72 1019.6
20260506230400 58 25 7.0 8.7 0.00 0.01 0.01 72 1019.4
20260506225856 59 23 7.8 7.8 0.00 0.01 0.01 72 1019.5
20260506225353 59 61 7.0 7.8 0.00 0.01 0.01 72 1019.3
20260506224850 59 12 0.9 10.4 0.00 0.01 0.01 73 1018.9
20260506224348 59 20 2.6 6.1 0.00 0.01 0.01 72 1018.8
20260506223844 59 345 4.3 6.1 0.00 0.01 0.01 72 1019.1
20260506223339 59 57 1.7 7.8 0.00 0.01 0.01 73 1019.3
20260506222836 59 96 1.7 10.4 0.00 0.01 0.01 73 1019.1
20260506222331 59 7 1.7 8.7 0.00 0.01 0.01 73 1019.1
20260506221830 60 48 4.3 4.3 0.00 0.01 0.01 73 1019.1
20260506221327 59 23 7.0 11.3 0.00 0.01 0.01 73 1019.1
20260506220825 59 67 3.5 9.6 0.00 0.01 0.01 73 1019.2
20260506220320 60 95 0.0 1.7 0.00 0.01 0.01 73 1018.8
20260506215817 60 27 5.2 6.1 0.00 0.01 0.01 73 1018.7
20260506215312 59 327 3.5 4.3 0.00 0.01 0.01 73 1019.2
20260506214808 59 22 2.6 10.4 0.00 0.01 0.01 73 1019.2
20260506214305 60 55 3.5 4.3 0.00 0.01 0.01 73 1019.5
20260506213804 59 25 2.6 7.8 0.00 0.01 0.01 73 1019.6
20260506213300 59 165 0.9 3.5 0.00 0.01 0.01 73 1019.6
20260506212758 59 12 2.6 5.2 0.00 0.01 0.01 73 1019.4
20260506212253 59 26 2.6 3.5 0.00 0.01 0.01 73 1019.4
20260506211749 59 69 6.1 6.1 0.00 0.01 0.01 73 1019.7
20260506211245 59 70 0.0 4.3 0.00 0.01 0.01 73 1019.7
20260506210742 59 347 2.6 4.3 0.00 0.01 0.01 73 1019.9
20260506210239 60 16 1.7 7.0 0.00 0.01 0.01 73 1020.0
20260506205736 59 54 0.9 3.5 0.00 0.01 0.01 73 1020.2
20260506205232 59 346 2.6 5.2 0.00 0.01 0.01 72 1020.3
20260506204729 59 90 4.3 9.6 0.00 0.01 0.01 73 1020.3
20260506204226 59 354 3.5 5.2 0.00 0.01 0.01 72 1020.2
20260506203724 59 37 2.6 4.3 0.00 0.01 0.01 72 1020.3
20260506203215 59 270 4.3 5.2 0.00 0.01 0.01 73 1020.8
20260506202713 59 17 3.5 4.3 0.00 0.01 0.01 72 1020.7
20260506202209 59 324 2.6 5.2 0.00 0.01 0.01 72 1020.5
20260506201706 59 295 6.1 6.1 0.00 0.01 0.01 73 1020.6
20260506201203 59 36 1.7 2.6 0.00 0.01 0.01 73 1020.8
20260506200659 58 90 5.2 7.0 0.00 0.01 0.01 72 1020.6
20260506200156 59 115 1.7 1.7 0.00 0.01 0.01 72 1020.8
20260506195653 58 31 5.2 9.6 0.00 0.01 0.01 72 1020.9
20260506195149 59 320 4.3 4.3 0.00 0.01 0.01 73 1020.9
20260506194647 59 23 2.6 7.8 0.00 0.01 0.01 73 1020.7
20260506194143 58 19 3.5 8.7 0.00 0.01 0.01 72 1020.5
20260506193641 59 63 2.6 5.2 0.00 0.01 0.01 73 1020.5
20260506193138 59 25 5.2 6.1 0.00 0.01 0.01 73 1020.6
20260506192634 59 77 6.1 7.8 0.00 0.01 0.01 72 1020.8
20260506192130 60 125 1.7 3.5 0.00 0.01 0.01 73 1020.9
20260506191627 60 308 3.5 3.5 0.00 0.01 0.01 73 1021.0
20260506191123 59 34 1.7 7.0 0.00 0.01 0.01 73 1020.8
20260506190621 60 8 4.3 5.2 0.00 0.01 0.01 73 1020.9
20260506190118 59 289 0.0 7.8 0.00 0.01 0.01 73 1020.7
20260506185615 59 9 7.0 11.3 0.00 0.01 0.01 72 1020.8
20260506185111 58 81 1.7 4.3 0.00 0.01 0.01 72 1020.9
20260506184609 58 37 5.2 6.1 0.00 0.01 0.01 72 1021.0
20260506184106 58 90 3.5 5.2 0.00 0.01 0.01 72 1021.0
20260506183602 58 63 3.5 3.5 0.00 0.01 0.01 72 1021.1
20260506183058 58 34 3.5 7.0 0.00 0.01 0.01 72 1021.0
20260506182556 58 342 2.6 7.8 0.00 0.01 0.01 72 1021.4
20260506182053 58 21 7.8 8.7 0.00 0.01 0.01 72 1021.6
20260506181551 58 261 0.0 4.3 0.00 0.01 0.01 72 1021.2
20260506181047 57 355 0.9 7.8 0.00 0.01 0.01 72 1021.2
20260506180544 57 16 2.6 6.1 0.00 0.01 0.01 72 1021.1
20260506180040 57 70 4.3 6.1 0.00 0.01 0.01 72 1020.9
20260506175537 57 60 5.2 10.4 0.00 0.01 0.01 72 1020.6
20260506175033 56 86 4.3 6.1 0.00 0.01 0.01 72 1020.6
20260506174532 56 44 6.1 11.3 0.00 0.01 0.01 72 1020.7
20260506174027 56 57 5.2 8.7 0.00 0.01 0.01 72 1020.8
20260506173526 56 12 6.1 7.8 0.00 0.01 0.01 72 1021.0
20260506173022 56 358 3.5 5.2 0.00 0.01 0.01 72 1021.1
20260506172519 56 19 3.5 6.1 0.00 0.01 0.01 72 1021.3
20260506172015 55 28 7.8 9.6 0.00 0.01 0.01 72 1021.3
20260506171513 55 328 7.0 9.6 0.00 0.01 0.01 72 1021.3
20260506171010 56 30 4.3 4.3 0.00 0.01 0.01 72 1021.3
20260506170508 56 356 6.1 6.1 0.00 0.01 0.01 72 1021.0
20260506170000 56 77 0.9 1.7 0.00 0.01 0.01 72 1021.2
20260506165458 56 36 1.7 4.3 0.00 0.01 0.01 72 1021.3
20260506164954 55 63 4.3 9.6 0.00 0.01 0.01 72 1021.5
20260506164450 55 314 4.3 7.0 0.00 0.01 0.01 72 1021.5
20260506163948 55 95 5.2 8.7 0.00 0.01 0.01 72 1021.4
20260506163443 55 59 7.8 9.6 0.00 0.01 0.01 72 1021.4
20260506162938 54 28 7.8 10.4 0.00 0.01 0.01 72 1021.2
20260506162436 53 45 6.1 7.8 0.00 0.01 0.01 72 1021.8
20260506161928 53 63 1.7 3.5 0.00 0.01 0.01 72 1021.6
20260506161426 53 63 1.7 3.5 0.00 0.01 0.01 72 1021.7
20260506160923 53 343 4.3 4.3 0.00 0.01 0.01 72 1021.3
20260506160420 53 16 4.3 9.6 0.00 0.01 0.01 72 1021.3
20260506155917 54 14 1.7 9.6 0.00 0.01 0.01 72 1021.3
20260506155414 53 14 3.5 8.7 0.00 0.01 0.01 72 1021.2
20260506153536 52 22 7.8 7.8 0.00 0.01 0.01 72 1021.0
20260506153034 52 22 6.1 6.1 0.00 0.01 0.01 72 1020.7
20260506152531 52 21 5.2 6.1 0.00 0.01 0.01 72 1020.6
20260506152029 51 354 4.3 6.1 0.00 0.01 0.01 72 1020.8
20260506151526 50 47 2.6 5.2 0.00 0.01 0.01 72 1021.1
20260506151023 50 47 2.6 6.1 0.00 0.01 0.01 72 1020.9
20260506150520 51 346 2.6 5.2 0.00 0.01 0.01 72 1021.1
20260506150017 50 29 4.3 6.1 0.00 0.01 0.01 72 1020.8
20260506145513 50 22 1.7 2.6 0.00 0.01 0.01 72 1021.0
20260506145011 48 71 2.6 5.2 0.00 0.01 0.01 71 1020.8
20260506144507 48 71 2.6 5.2 0.00 0.01 0.01 71 1021.0
20260506144005 48 71 2.6 5.2 0.00 0.01 0.01 71 1020.8
20260506143502 48 71 2.6 5.2 0.00 0.01 0.01 71 1020.8
20260506143001 48 71 2.6 5.2 0.00 0.01 0.01 71 1021.1
20260506142458 48 71 2.6 5.2 0.00 0.01 0.01 71 1020.7
20260506141956 48 71 2.6 5.2 0.00 0.01 0.01 71 1020.8
20260506141453 48 71 2.6 5.2 0.00 0.01 0.01 71 1021.0
20260506140952 48 71 2.6 5.2 0.00 0.01 0.01 71 1020.8
20260506140448 48 40 2.6 6.1 0.00 0.01 0.01 71 1020.7
20260506135945 0 0.0 0.0 0.00 0.01 0.01 1020.8
20260506135443 46 27 7.8 7.8 0.00 0.01 0.01 71 1020.7
20260506134938 46 27 7.8 7.8 0.00 0.01 0.01 71 1020.7
20260506134435 46 27 7.8 7.8 0.00 0.01 0.01 71 1020.6
20260506133932 46 27 7.8 7.8 0.00 0.01 0.01 71 1020.5
20260506133429 46 27 7.8 7.8 0.00 0.01 0.01 71 1020.5
20260506132926 46 27 7.8 7.8 0.00 0.01 0.01 71 1020.7
20260506132422 46 27 7.8 7.8 0.00 0.01 0.01 71 1020.6
20260506131920 46 27 7.8 7.8 0.00 0.01 0.01 71 1020.8
20260506131416 46 27 7.8 7.8 0.00 0.01 0.01 71 1020.6
20260506130914 46 27 7.8 7.8 0.00 0.01 0.01 71 1020.4
20260506130410 46 27 7.8 7.8 0.00 0.01 0.01 71 1020.7
20260506125908 46 27 7.8 7.8 0.00 0.01 0.01 71 1020.5
20260506125406 0 0.0 0.0 0.00 0.01 0.01 1020.5
20260506124904 0 0.0 0.0 0.00 0.01 0.01 1020.2
20260506124401 0 0.0 0.0 0.00 0.01 0.01 1020.2
20260506123859 0 0.0 0.0 0.00 0.01 0.01 1020.4
20260506123357 0 0.0 0.0 0.00 0.01 0.01 1020.2
20260506122854 0 0.0 0.0 0.00 0.01 0.01 1019.9
20260506122350 0 0.0 0.0 0.00 0.01 0.01 1020.4
20260506121849 0 0.0 0.0 0.00 0.01 0.01 1020.1
20260506121346 0 0.0 0.0 0.00 0.01 0.01 1020.1
20260506120842 0 0.0 0.0 0.00 0.01 0.01 1020.1
20260506120340 0 0.0 0.0 0.00 0.01 0.01 1019.7
20260506115837 0 0.0 0.0 0.00 0.01 0.01 1019.5
20260506115336 0 0.0 0.0 0.00 0.01 0.01 1019.6
20260506114833 0 0.0 0.0 0.00 0.01 0.01 1019.3
20260506114331 0 0.0 0.0 0.00 0.01 0.01 1019.3
20260506113829 0 0.0 0.0 0.00 0.01 0.01 1018.8
20260506113326 0 0.0 0.0 0.00 0.01 0.01 1018.8
20260506112823 0 0.0 0.0 0.00 0.01 0.01 1018.7
20260506112320 0 0.0 0.0 0.00 0.01 0.01 1018.5
20260506111817 0 0.0 0.0 0.00 0.01 0.01 1018.3
20260506111315 0 0.0 0.0 0.00 0.01 0.01 1018.0
20260506110813 0 0.0 0.0 0.00 0.01 0.01 1018.1
20260506110309 0 0.0 0.0 0.00 0.01 0.01 1017.9
20260506105806 0 0.0 0.0 0.00 0.01 0.01 1017.9
20260506105305 0 0.0 0.0 0.00 0.01 0.01 1017.7
20260506104801 0 0.0 0.0 0.00 0.01 0.01 1017.5
20260506104258 0 0.0 0.0 0.00 0.01 0.01 1017.8
20260506103755 0 0.0 0.0 0.00 0.01 0.01 1017.8
20260506103253 0 0.0 0.0 0.00 0.01 0.01 1017.8
20260506102750 0 0.0 0.0 0.00 0.01 0.01 1017.9
20260506102248 0 0.0 0.0 0.00 0.01 0.01 1017.7
20260506101745 0 0.0 0.0 0.00 0.01 0.01 1017.7
20260506101241 0 0.0 0.0 0.00 0.01 0.01 1017.8
20260506100739 0 0.0 0.0 0.00 0.01 0.01 1017.4
20260506100237 0 0.0 0.0 0.00 0.01 0.01 1017.3
20260506095736 0 0.0 0.0 0.00 0.01 0.01 1017.4
20260506095232 0 0.0 0.0 0.00 0.01 0.01 1017.6
20260506094729 0 0.0 0.0 0.00 0.01 0.01 1017.8
20260506094227 0 0.0 0.0 0.00 0.01 0.01 1017.7
20260506093726 0 0.0 0.0 0.00 0.01 0.01 1018.0
20260506093222 0 0.0 0.0 0.00 0.01 0.01 1018.1
20260506092720 0 0.0 0.0 0.00 0.01 0.01 1018.0
20260506092217 0 0.0 0.0 0.00 0.01 0.01 1017.7
20260506091715 0 0.0 0.0 0.00 0.01 0.01 1017.6
20260506091212 0 0.0 0.0 0.00 0.01 0.01 1017.5
20260506090710 0 0.0 0.0 0.00 0.01 0.01 1017.5
20260506090206 0 0.0 0.0 0.00 0.01 0.01 1017.2
20260506085703 0 0.0 0.0 0.00 0.01 0.01 1017.0
20260506085159 0 0.0 0.0 0.00 0.01 0.01 1017.1
20260506084656 0 0.0 0.0 0.00 0.01 0.01 1016.6
20260506084153 0 0.0 0.0 0.00 0.01 0.01 1016.1
20260506083649 0 0.0 0.0 0.00 0.01 0.01 1016.9
20260506083148 0 0.0 0.0 0.00 0.01 0.01 1017.2
20260506082644 0 0.0 0.0 0.00 0.01 0.01 1017.0
20260506082139 0 0.0 0.0 0.00 0.01 0.01 1017.3
20260506081638 0 0.0 0.0 0.00 0.01 0.01 1017.3
20260506081135 0 0.0 0.0 0.00 0.01 0.01 1017.3
20260506080633 0 0.0 0.0 0.00 0.01 0.01 1017.6
20260506080129 0 0.0 0.0 0.00 0.01 0.01 1017.4
20260506073113 44 28 7.8 7.8 0.00 0.01 0.01 71 1016.7
20260506072609 44 28 7.8 7.8 0.00 0.01 0.01 71 1016.6
20260506072108 44 28 7.8 7.8 0.00 0.01 0.01 71 1016.5
20260506071605 44 28 7.8 7.8 0.00 0.01 0.01 71 1016.8
20260506071103 44 28 7.8 7.8 0.00 0.01 0.01 71 1016.5
20260506070600 44 28 7.8 7.8 0.00 0.01 0.01 71 1016.8
20260506062033 44 50 2.6 7.8 0.00 0.01 0.01 71 1016.3
20260506061529 44 50 2.6 7.8 0.00 0.01 0.01 71 1016.1
20260506061027 43 78 1.7 8.7 0.00 0.01 0.01 71 1016.2
20260506060525 44 57 1.7 3.5 0.00 0.01 0.01 71 1016.4
20260506050954 45 25 4.3 4.3 0.02 0.00 0.00 71 1016.2
20260506050452 45 25 4.3 4.3 0.00 0.00 0.00 71 1015.8
20260506044942 44 16 5.2 5.2 0.02 0.28 0.28 71 1016.5
20260506044441 44 16 5.2 5.2 0.00 0.28 0.28 71 1016.4
20260506043937 44 16 5.2 8.7 0.07 0.28 0.28 71 1016.5
20260506043434 44 11 4.3 7.8 0.14 0.28 0.28 71 1016.3
20260506042932 44 51 4.3 7.8 0.07 0.27 0.27 71 1016.0
20260506042431 44 51 4.3 7.8 0.00 0.26 0.26 71 1015.7
20260506041929 45 22 6.1 8.7 0.00 0.26 0.26 71 1015.4
20260506041426 45 22 6.1 8.7 0.00 0.26 0.26 71 1015.5
20260506040923 45 22 6.1 8.7 0.00 0.26 0.26 71 1015.6
20260506040421 45 8 1.7 3.5 0.00 0.26 0.26 71 1016.4
20260506035917 45 8 1.7 3.5 0.00 0.26 0.26 71 1015.5
20260506035415 45 17 6.1 6.1 0.00 0.26 0.26 71 1015.1
20260506034911 45 17 6.1 6.1 0.00 0.26 0.26 71 1015.2
20260506034408 45 17 6.1 6.1 0.00 0.26 0.26 71 1015.4
20260506033905 45 17 6.1 6.1 0.00 0.26 0.26 71 1015.8
20260506033402 45 37 3.5 7.0 0.00 0.26 0.26 71 1014.8
20260506032859 45 124 3.5 3.5 0.19 0.26 0.26 71 1015.0
20260506032356 45 345 0.0 3.5 0.38 0.26 0.26 71 1015.2
20260506031853 45 77 1.7 4.3 0.26 0.22 0.22 71 1014.8
20260506031350 0 0.0 0.0 0.09 0.19 0.19 1014.7
20260506030848 0 0.0 0.0 0.02 0.18 0.18 1014.6
20260506030346 0 0.0 0.0 0.00 0.18 0.18 1014.6
20260506025842 0 0.0 0.0 0.00 0.18 0.18 1014.3
20260506025338 46 25 7.8 8.7 0.00 0.18 0.18 71 1014.3
20260506024836 46 25 7.8 8.7 0.00 0.18 0.18 71 1014.3
20260506024333 46 25 7.8 8.7 0.00 0.18 0.18 71 1014.5
20260506023829 46 25 7.8 8.7 0.00 0.18 0.18 71 1014.6
20260506023325 46 25 7.8 8.7 0.00 0.18 0.18 71 1014.6
20260506022822 46 25 7.8 8.7 0.02 0.18 0.18 71 1014.3
20260506022320 46 25 7.8 8.7 0.05 0.18 0.18 71 1014.5
20260506021818 46 25 7.8 8.7 0.05 0.17 0.17 71 1014.7
20260506021315 46 25 7.8 8.7 0.00 0.17 0.17 71 1014.0
20260506020811 46 25 7.8 8.7 0.00 0.17 0.17 71 1014.4
20260506020309 46 25 7.8 8.7 0.00 0.17 0.17 71 1014.3
20260506015807 46 25 7.8 8.7 0.00 0.17 0.17 71 1014.4
20260506015306 46 20 6.1 11.3 0.00 0.17 0.17 71 1014.0
20260506014801 46 20 6.1 11.3 0.00 0.17 0.17 71 1013.9
20260506014257 0 0.0 0.0 0.00 0.17 0.17 1014.1
20260506013754 0 0.0 0.0 0.02 0.17 0.17 1013.6
20260506013251 0 0.0 0.0 0.09 0.17 0.17 1013.5
20260506012748 0 0.0 0.0 0.17 0.16 0.16 1013.5
20260506012245 0 0.0 0.0 0.09 0.15 0.15 1013.7
20260506011742 0 0.0 0.0 0.00 0.13 0.13 1013.4
20260506011238 0 0.0 0.0 0.00 0.13 0.13 1013.1
20260506010737 0 0.0 0.0 0.00 0.13 0.13 1013.2
20260506010234 0 0.0 0.0 0.00 0.13 0.13 1013.6
20260506005731 0 0.0 0.0 0.00 0.13 0.13 1013.4
20260506005228 0 0.0 0.0 0.00 0.13 0.13 1013.1
20260506004723 0 0.0 0.0 0.00 0.13 0.13 1012.8
20260506004221 0 0.0 0.0 0.02 0.13 0.13 1013.1
20260506003717 0 0.0 0.0 0.02 0.13 0.13 1013.0
20260506003214 0 0.0 0.0 0.00 0.13 0.13 1013.1
20260506002709 0 0.0 0.0 0.00 0.13 0.13 1013.1
20260506002206 0 0.0 0.0 0.00 0.13 0.13 1012.8
20260506001702 0 0.0 0.0 0.00 0.13 0.13 1012.5
20260506001159 51 34 3.5 7.0 0.00 0.13 0.13 72 1012.2
20260506000656 51 34 3.5 7.0 0.00 0.13 0.13 72 1012.4
20260506000154 51 34 3.5 7.0 0.00 0.13 0.13 72 1012.4
20260505235652 51 34 3.5 7.0 0.00 0.13 0.13 72 1012.5